Chippewa, MI

7:43 AM EST on November 20, 2019 (GMT -0500)
Chippewa County International

Weather History for KCIU - October, 2019

Change the Weather History Date:

Monday, October 21, 2019

  Actual Average Record
Temperature  
Mean Temperature 46 °F -  
Max Temperature 53 °F 50 °F 70 °F (2017)
Min Temperature 41 °F 31 °F 22 °F (1983)
Degree Days  
Heating Degree Days 18    
Moisture  
Dew Point 46 °F    
Average Humidity 97    
Maximum Humidity 100    
Minimum Humidity 86    
Precipitation  
Precipitation 0.70 in - - ()
Sea Level Pressure  
Sea Level Pressure 29.88 in    
Wind  
Wind Speed 9 mph ()    
Max Wind Speed 31 mph    
Max Gust Speed 41 mph    
Visibility 4.9 miles    
Events Fog , Rain    
Averages and records for this station are not official NWS values.
T = Trace of Precipitation, MM = Missing Value Source: Averaged Metar Reports

Daily Weather History Graph

Daily Weather History Graph

Search for Another Location

Airport or City:

Astronomy

Oct. 21, 2019 Rise Set
Actual Time 8:03 AM EDT 6:41 PM EDT
Civil Twilight 7:32 AM EDT 7:11 PM EDT
Nautical Twilight 6:57 AM EDT 7:46 PM EDT
Astronomical Twilight 6:22 AM EDT 8:21 PM EDT
Moon No Moon Rise 3:32 PM EDT (10/21)
Length of Visible Light 11h 39m
Length of Day
10h 38m
Waning Gibbous, 48% of the Moon is Illuminated
Oct 21
Waning Gibbous
Oct 27
New
Nov 4
First Quarter
Nov 12
Full
Nov 19
Last Quarter

Hourly Weather History & Observations

Time (EDT) Temp. Windchill Dew Point Humidity Pressure Visibility Wind Dir Wind Speed Gust Speed Precip Events Conditions
12:28 AM 42.8 °F 41.1 °F 42.8 °F 100% 30.02 in 2.0 mi ESE 3.5 mph - N/A   Clear
12:37 AM 42.8 °F 40.1 °F 41.0 °F 93% 30.02 in 9.0 mi East 4.6 mph - N/A   Clear
12:56 AM 41.0 °F 39.0 °F 41.0 °F 100% 30.03 in 10.0 mi East 3.5 mph - N/A   Clear
1:29 AM 44.6 °F 43.1 °F 44.6 °F 100% 30.01 in 1.5 mi SE 3.5 mph - N/A   Clear
1:39 AM 44.6 °F 40.7 °F 44.6 °F 100% 30.02 in 4.0 mi South 6.9 mph - N/A   Clear
1:56 AM 45.0 °F 43.5 °F 45.0 °F 100% 30.03 in 7.0 mi SSE 3.5 mph - N/A   Clear
2:47 AM 44.6 °F - 44.6 °F 100% 30.03 in 1.8 mi Calm Calm - N/A   Clear
2:56 AM 43.0 °F - 43.0 °F 100% 30.04 in 1.2 mi Calm Calm - N/A   Clear
3:01 AM 42.8 °F - 42.8 °F 100% 30.04 in 0.8 mi Calm Calm - N/A   Clear
3:11 AM 42.8 °F 41.1 °F 42.8 °F 100% 30.04 in 0.5 mi WSW 3.5 mph - N/A Fog Fog
3:32 AM 41.0 °F - 41.0 °F 100% 30.04 in 1.0 mi Calm Calm - N/A   Clear
3:37 AM 41.0 °F - 41.0 °F 100% 30.04 in 2.0 mi Calm Calm - N/A   Clear
3:48 AM 41.0 °F 39.0 °F 41.0 °F 100% 30.04 in 1.0 mi East 3.5 mph - N/A   Clear
3:50 AM 41.0 °F 39.0 °F 41.0 °F 100% 30.04 in 0.5 mi East 3.5 mph - N/A Fog Fog
3:53 AM 41.0 °F 39.0 °F 41.0 °F 100% 30.04 in 0.2 mi East 3.5 mph - N/A Fog Fog
3:56 AM 42.1 °F - 41.0 °F 96% 30.05 in 0.2 mi Calm Calm - N/A Fog Fog
4:04 AM 41.0 °F 39.0 °F 41.0 °F 100% 30.03 in 0.8 mi ENE 3.5 mph - N/A   Mist
4:06 AM 42.8 °F - 41.0 °F 93% 30.03 in 1.2 mi Calm Calm - N/A   Partly Cloudy
4:09 AM 41.0 °F - 41.0 °F 100% 30.03 in 4.0 mi Calm Calm - N/A   Partly Cloudy
4:56 AM 43.0 °F 38.2 °F 43.0 °F 100% 30.01 in 6.0 mi East 8.1 mph - N/A   Clear
5:56 AM 44.1 °F 38.6 °F 44.1 °F 100% 30.02 in 10.0 mi East 10.4 mph - N/A   Clear
6:16 AM 44.6 °F 38.8 °F 44.6 °F 100% 30.02 in 1.8 mi East 11.5 mph - N/A   Clear
6:21 AM 44.6 °F 38.8 °F 44.6 °F 100% 30.03 in 0.8 mi East 11.5 mph - N/A   Clear
6:27 AM 44.6 °F 38.8 °F 44.6 °F 100% 30.03 in 0.5 mi ESE 11.5 mph - N/A Fog Fog
6:38 AM 44.6 °F 38.8 °F 44.6 °F 100% 30.03 in 0.2 mi ESE 11.5 mph - N/A Fog Fog
6:52 AM 44.6 °F 38.4 °F 44.6 °F 100% 30.02 in 0.5 mi East 12.7 mph - N/A Fog Fog
6:56 AM 45.0 °F 38.5 °F 45.0 °F 100% 30.03 in 0.8 mi East 13.8 mph - N/A   Overcast
6:59 AM 44.6 °F 38.4 °F 44.6 °F 100% 30.01 in 1.2 mi East 12.7 mph - N/A   Overcast
7:17 AM 46.4 °F 40.4 °F 46.4 °F 100% 30.01 in 3.0 mi East 13.8 mph - N/A   Overcast
7:52 AM 46.4 °F 40.7 °F 46.4 °F 100% 30.00 in 1.8 mi East 12.7 mph - N/A   Overcast
7:56 AM 46.0 °F 40.6 °F 46.0 °F 100% 30.00 in 1.0 mi East 11.5 mph - N/A   Overcast
8:00 AM 46.4 °F 40.7 °F 46.4 °F 100% 29.99 in 0.5 mi East 12.7 mph - N/A Fog Fog
8:11 AM 46.4 °F 41.1 °F 46.4 °F 100% 30.00 in 1.0 mi East 11.5 mph - N/A   Overcast
8:16 AM 46.4 °F 41.1 °F 46.4 °F 100% 30.00 in 2.0 mi ESE 11.5 mph - N/A   Overcast
8:56 AM 46.0 °F 40.2 °F 46.0 °F 100% 29.98 in 10.0 mi East 12.7 mph - N/A   Overcast
9:19 AM 46.4 °F 40.4 °F 46.4 °F 100% 29.97 in 10.0 mi ESE 13.8 mph - N/A   Overcast
9:56 AM 48.0 °F - 46.9 °F 96% 29.96 in 10.0 mi East 15.0 mph 23.0 mph N/A   Overcast
10:56 AM 48.9 °F - 46.9 °F 93% 29.93 in 10.0 mi East 20.7 mph 27.6 mph N/A   Overcast
11:33 AM 48.2 °F - 46.4 °F 93% 29.93 in 10.0 mi ESE 17.3 mph 26.5 mph N/A   Overcast
11:56 AM 48.9 °F - 46.9 °F 93% 29.93 in 10.0 mi ESE 19.6 mph - N/A   Overcast
12:56 PM 50.0 °F - 46.9 °F 89% 29.87 in 10.0 mi East 19.6 mph 26.5 mph N/A   Mostly Cloudy
1:56 PM 51.1 °F - 48.0 °F 89% 29.81 in 10.0 mi East 21.9 mph 31.1 mph N/A   Overcast
2:33 PM 51.8 °F - 48.2 °F 88% 29.76 in 10.0 mi ESE 23.0 mph 34.5 mph N/A   Overcast
2:56 PM 52.0 °F - 48.0 °F 86% 29.74 in 10.0 mi ESE 29.9 mph 34.5 mph N/A   Overcast
3:56 PM 51.1 °F - 48.9 °F 92% 29.71 in 10.0 mi ESE 27.6 mph 33.4 mph 0.00 in Rain Light Rain
4:56 PM 51.1 °F - 48.9 °F 92% 29.68 in 8.0 mi ESE 19.6 mph 31.1 mph 0.08 in Rain Light Rain
5:47 PM 51.8 °F - 50.0 °F 94% 29.64 in 5.0 mi ESE 25.3 mph 39.1 mph 0.05 in Rain Rain
5:56 PM 52.0 °F - 50.0 °F 93% 29.65 in 5.0 mi ESE 28.8 mph 36.8 mph 0.07 in Rain Rain
6:15 PM 51.8 °F - 50.0 °F 94% 29.63 in 2.5 mi ESE 27.6 mph 38.0 mph 0.08 in Rain Rain
6:32 PM 51.8 °F - 50.0 °F 94% 29.63 in 3.0 mi ESE 26.5 mph 36.8 mph 0.14 in Rain Rain
6:48 PM 51.8 °F - 50.0 °F 94% 29.63 in 2.5 mi ESE 23.0 mph 32.2 mph 0.23 in Rain Rain
6:50 PM 51.8 °F - 50.0 °F 94% 29.63 in 3.0 mi ESE 21.9 mph 32.2 mph 0.23 in Rain Rain
6:56 PM 51.1 °F - 50.0 °F 96% 29.63 in 5.0 mi ESE 24.2 mph 31.1 mph 0.25 in Rain Rain
7:56 PM 51.1 °F - 50.0 °F 96% 29.60 in 5.0 mi ESE 26.5 mph 33.4 mph 0.15 in Rain Rain
8:22 PM 51.8 °F - 50.0 °F 94% 29.58 in 5.0 mi SE 27.6 mph 39.1 mph 0.05 in Rain Heavy Rain
8:56 PM 52.0 °F - 50.0 °F 93% 29.56 in 7.0 mi ESE 31.1 mph 41.4 mph 0.13 in Rain Light Rain
9:56 PM 52.0 °F - 50.0 °F 93% 29.56 in 10.0 mi ESE 25.3 mph 39.1 mph 0.02 in Rain Light Rain
10:06 PM 51.8 °F - 50.0 °F 94% 29.55 in 10.0 mi SE 28.8 mph 36.8 mph 0.00 in   Overcast
10:56 PM 52.0 °F - 50.0 °F 93% 29.54 in 10.0 mi SE 25.3 mph - 0.00 in   Overcast
11:06 PM 51.8 °F - 50.0 °F 94% 29.53 in 10.0 mi SE 28.8 mph 35.7 mph N/A   Overcast
11:33 PM 51.8 °F - 51.8 °F 100% 29.51 in 10.0 mi SE 23.0 mph 28.8 mph N/A   Overcast
11:56 PM 52.0 °F - 51.1 °F 97% 29.51 in 10.0 mi SE 20.7 mph 27.6 mph N/A   Overcast